Weather in Ballyvaughan

Ireland     53°06′55″N   9°08′57″W
temp.,
°C
wind,
m/s
gust,
m/s
humid.,
%
clouds,
%
prec.,
mm/h
press.,
hPa
HPBL,
m
17 june, thu
thu1701:00+10w478827 0.5 1011318
04:00+9w47847 0.3 1012292
07:00+10wsw36858 0.3 1013414
10:00+12wnw678037 0.3 1014858
13:00+13wnw777053 0.3 1016966
16:00+13nw886643 0.1 1017877
19:00+12nw88667 0.1 1019880
22:00+9nw58721 0.0 1021322
18 june, fri
fri1801:00+7nnw36830 0.0 1022217
04:00+6nne23904 0.0 1022111
07:00+7nne248620 0.1 1022172
10:00+11nne2263100 0.0 10221088
13:00+12nw3258100 0.1 10211169
16:00+13wnw435899 0.0 10201086
19:00+11nw446737 0.0 1019457
22:00+8nw237821 0.0 101887
19 june, sat
sat1901:00+8ne1178100 0.0 101775
04:00+7se1181100 0.0 101644
07:00+8ese3480100 0.0 1014140
10:00+12sse6864100 0.0 1013856
13:00+15sse5754100 0.0 10111271
16:00+17sse685382 0.0 10091611
19:00+15se576486 0.0 1008995
22:00+11ese378184 0.0 1009160
20 june, sun
sun2001:00+9ene3685100 0.0 1009136
04:00+10ne3886100 0.0 1008209
07:00+10nne51196100 0.6 1008377
10:00+11ne51296100 0.4 1008413
13:00+14ne7119093 0.8 1008840
16:00+15ne6882100 0.3 1009949
19:00+14nne5886100 0.6 1010699
22:00+11ne4891100 0.1 1012324
21 june, mon
mon2101:00+10nne41087100 0.1 1012462
04:00+10nne4894100 0.0 1013414
07:00+10nne61087100 0.1 1014469
10:00+13nne797023 0.0 1015888
13:00+16n676167 0.0 10151367
16:00+15nne666482 0.1 10161188
19:00+14nne67671 0.1 1018795
22:00+10nne58818 0.0 1020294